sat.trackr.live / text

‹ back to catalog

STARLINK-5876

NORAD 56321 · 2023-058E

PAYLOAD ACTIVE UNKNOWN

§ Identity

Operator
Country
US
Launch date
2023-04-27
Launch site
AFWTR
Launch vehicle
Mass (kg)
RCS (m²)

Purposes: comms

External: N2YO · Heavens-Above · Gunter

§ Orbital elements

Epoch: 2026-09-20T23:05:32.587008Z

Period
93.91 min
Inclination
97.2848°
Eccentricity
0.0001766
Mean motion
15.33306853 rev/d
Perigee alt
464.7 km
Apogee alt
467.2 km
Semi-major
6,844.1 km
B*
-1.0896e-2
RAAN
260.6815°
Arg perigee
100.7201°
Mean anomaly
259.4241°
Rev number
18,735

§ Raw data

STARLINK-58761 56321U 23058E   26263.96218272 -.00335274  00000+0 -10896-1 0  99912 56321  97.2848 260.6815 0001766 100.7201 259.4241 15.33306853187354

JSON: /api/v1/satellites/56321 · /tle

For live sub-satellite position, see the globe view (requires WebGL).

§ Visibility from observer

Set your observer location to see the next 7 days of passes ≥ 10°. The values pass through the URL so the page stays shareable.

No JS? Fill the form by hand. The geolocation button needs JavaScript.